Date String (YYYY-MM-DD hh:mm:ss) UTC,Instrument flags,absolute air pressure of the measurement (hPa),sample flow rate (lpm),inlet stack bypass flow (lpm),air temperature of the measurement (°C),ambient temperature measured by the external sensor (°C),aerosol sample conditioner tube jacket temperature (°C),OPC LED temperature (°C),internal box temperature (°C),relative humidity of the measurement (%),span deviation,mass concentration of particles derived from Lorenz-Mie calculation of OPC scattering (μg/m³),mass concentration of particles derived from Lorenz-Mie calculation of OPC scattering (μg/m³),mass concentration of particles derived from Lorenz-Mie calculation of OPC scattering (μg/m³)
DateTimeUTC,F1_M11,P_M11,Q1_M11,Q2_M11,T1_M11,T2_M11,T3_M11,T4_M11,T5_M11,U1_M11,ZSPAN_M11,X0_M11,X2_M11,X1_M11
2023-06-07 14:00:00,SystemResetWarning,0830.2,5.00,000.00,030.0,028.4,000.0,038.6,031.4,23.4,0000.0,0007.74,0003.88,0003.51
2023-06-07 14:01:00,SystemResetWarning,0830.2,5.00,000.00,030.0,028.4,000.0,038.6,031.5,23.5,0000.0,0007.78,0003.88,0003.51
2023-06-07 14:02:00,SystemResetWarning,0830.2,5.00,000.00,030.0,028.4,000.0,038.6,031.5,23.5,0000.0,0008.40,0003.86,0003.50
2023-06-07 14:03:00,SystemResetWarning,0830.2,5.00,000.00,030.0,028.4,000.0,038.6,031.5,24.1,0000.0,0008.29,0003.86,0003.50
2023-06-07 14:04:00,SystemResetWarning,0830.1,5.00,000.00,030.0,028.4,000.0,038.6,031.5,23.7,0000.0,0008.33,0003.85,0003.49
2023-06-07 14:05:00,SystemResetWarning,0830.2,5.00,000.00,030.0,028.4,000.0,038.6,031.5,24.2,0000.0,0008.32,0003.84,0003.48
2023-06-07 14:06:00,SystemResetWarning,0830.1,5.00,000.00,030.0,028.3,000.0,038.6,031.4,23.8,0000.0,0008.03,0003.82,0003.47
2023-06-07 14:07:00,SystemResetWarning,0830.2,4.99,000.00,030.0,028.3,000.0,038.6,031.4,23.5,0000.0,0007.49,0003.78,0003.45
2023-06-07 14:08:00,SystemResetWarning,0830.1,5.00,000.00,030.0,028.3,000.0,038.6,031.5,25.3,0000.0,0007.25,0003.76,0003.45
2023-06-07 14:09:00,SystemResetWarning,0830.1,5.01,000.00,030.0,028.3,000.0,038.6,031.4,25.5,0000.0,0007.24,0003.78,0003.44
2023-06-07 14:10:00,SystemResetWarning,0830.1,5.01,000.00,030.0,028.3,000.0,038.6,031.4,26.1,0000.0,0007.35,0003.82,0003.45
2023-06-07 14:11:00,SystemResetWarning,0830.1,5.01,000.00,030.0,028.3,000.0,038.6,031.5,25.9,0000.0,0007.37,0003.81,0003.44
2023-06-07 14:12:00,SystemResetWarning,0830.1,4.99,000.00,030.0,028.3,000.0,038.6,031.5,26.0,0000.0,0007.25,0003.79,0003.43
2023-06-07 14:13:00,SystemResetWarning,0830.1,4.99,000.00,030.0,028.3,000.0,038.6,031.5,25.6,0000.0,0006.04,0003.78,0003.44
2023-06-07 14:14:00,SystemResetWarning,0830.1,4.99,000.00,030.0,028.3,000.0,038.6,031.4,25.3,0000.0,0005.98,0003.77,0003.44
2023-06-07 14:15:00,SystemResetWarning,0830.1,5.00,000.00,030.0,028.3,000.0,038.6,031.4,25.6,0000.0,0005.92,0003.76,0003.44
2023-06-07 14:16:00,SystemResetWarning,0830.1,5.00,000.00,030.0,028.3,000.0,038.6,031.5,24.7,0000.0,0006.41,0003.76,0003.44
2023-06-07 14:17:00,SystemResetWarning,0830.1,5.00,000.00,030.0,028.4,000.0,038.6,031.5,24.2,0000.0,0006.48,0003.75,0003.44
2023-06-07 14:18:00,SystemResetWarning,0830.1,5.00,000.00,030.0,028.4,000.0,038.6,031.5,24.5,0000.0,0006.59,0003.76,0003.44
2023-06-07 14:19:00,SystemResetWarning,0830.1,5.01,000.00,030.0,028.4,000.0,038.6,031.5,24.5,0000.0,0006.61,0003.76,0003.44
2023-06-07 14:20:00,SystemResetWarning,0830.1,5.00,000.00,030.0,028.4,000.0,038.6,031.5,25.8,0000.0,0006.97,0003.77,0003.45
2023-06-07 14:21:00,SystemResetWarning,0830.0,5.00,000.00,030.0,028.4,000.0,038.6,031.5,27.2,0000.0,0007.31,0003.77,0003.46
2023-06-07 14:22:00,SystemResetWarning,0830.0,5.00,000.00,030.0,028.4,000.0,038.6,031.5,25.6,0000.0,0007.31,0003.79,0003.47
2023-06-07 14:23:00,SystemResetWarning,0830.0,5.00,000.00,030.1,028.5,000.0,038.6,031.5,24.4,0000.0,0007.87,0003.82,0003.46
2023-06-07 14:24:00,SystemResetWarning,0830.1,5.00,000.00,030.1,028.5,000.0,038.6,031.5,24.5,0000.0,0008.06,0003.84,0003.45
2023-06-07 14:25:00,SystemResetWarning,0830.0,5.00,000.00,030.1,028.5,000.0,038.6,031.5,26.0,0000.0,0008.19,0003.83,0003.45
2023-06-07 14:26:00,SystemResetWarning,0830.0,5.00,000.00,030.1,028.5,000.0,038.6,031.6,25.6,0000.0,0008.60,0003.84,0003.45
2023-06-07 14:27:00,SystemResetWarning,0830.0,5.00,000.00,030.1,028.5,000.0,038.6,031.6,25.2,0000.0,0008.31,0003.85,0003.45
2023-06-07 14:28:00,SystemResetWarning,0830.0,5.00,000.00,030.1,028.5,000.0,038.6,031.6,25.4,0000.0,0008.32,0003.86,0003.45
2023-06-07 14:29:00,SystemResetWarning,0830.0,5.01,000.00,030.1,028.5,000.0,038.6,031.6,24.4,0000.0,0008.37,0003.87,0003.44
2023-06-07 14:30:00,SystemResetWarning,0830.0,4.99,000.00,030.1,028.5,000.0,038.6,031.6,25.4,0000.0,0008.34,0003.84,0003.44
2023-06-07 14:31:00,SystemResetWarning,0830.0,4.99,000.00,030.1,028.6,000.0,038.6,031.6,26.6,0000.0,0008.34,0003.83,0003.44
2023-06-07 14:32:00,SystemResetWarning,0830.0,5.00,000.00,030.2,028.6,000.0,038.7,031.7,26.5,0000.0,0008.33,0003.80,0003.42
2023-06-07 14:33:00,SystemResetWarning,0829.9,5.01,000.00,030.2,028.6,000.0,038.7,031.7,25.8,0000.0,0008.38,0003.78,0003.42
2023-06-07 14:34:00,SystemResetWarning,0829.9,5.00,000.00,030.2,028.6,000.0,038.7,031.7,27.2,0000.0,0008.17,0003.81,0003.44
2023-06-07 14:35:00,SystemResetWarning,0829.9,5.00,000.00,030.2,028.6,000.0,038.7,031.7,27.5,0000.0,0007.97,0003.87,0003.49
2023-06-07 14:36:00,SystemResetWarning,0830.0,5.00,000.00,030.2,028.7,000.0,038.7,031.7,26.2,0000.0,0007.99,0003.91,0003.52
2023-06-07 14:37:00,SystemResetWarning,0829.9,5.01,000.00,030.2,028.7,000.0,038.7,031.7,25.6,0000.0,0007.54,0003.94,0003.53
2023-06-07 14:38:00,SystemResetWarning,0829.9,4.99,000.00,030.2,028.7,000.0,038.7,031.7,24.7,0000.0,0007.47,0003.92,0003.54
2023-06-07 14:39:00,SystemResetWarning,0829.9,5.00,000.00,030.2,028.7,000.0,038.7,031.7,24.3,0000.0,0007.52,0003.92,0003.54
2023-06-07 14:40:00,SystemResetWarning,0830.0,5.00,000.00,030.2,028.7,000.0,038.7,031.7,24.4,0000.0,0007.51,0003.93,0003.56
2023-06-07 14:41:00,SystemResetWarning,0830.0,5.00,000.00,030.2,028.7,000.0,038.8,031.7,24.8,0000.0,0007.54,0003.95,0003.57
2023-06-07 14:42:00,SystemResetWarning,0830.0,4.99,000.00,030.3,028.3,000.0,038.7,031.9,24.8,0000.0,0007.58,0003.96,0003.56
2023-06-07 14:43:00,SystemResetWarning,0830.0,5.00,000.00,030.3,026.4,000.0,038.7,031.8,25.0,0000.0,0007.40,0003.94,0003.56
2023-06-07 14:44:00,SystemResetWarning,0830.0,5.01,000.00,030.3,025.6,000.0,038.6,031.7,25.3,0000.0,0007.31,0003.97,0003.56
2023-06-07 14:45:00,SystemResetWarning,0829.9,5.00,000.00,030.2,025.9,000.0,038.6,031.5,25.6,0000.0,0007.25,0003.98,0003.56
2023-06-07 14:46:00,SystemResetWarning,0830.0,4.99,000.00,030.1,026.2,000.0,038.6,031.2,25.8,0000.0,0007.04,0003.93,0003.53
2023-06-07 14:47:00,SystemResetWarning,0830.0,5.00,000.00,030.0,026.5,000.0,038.6,031.1,26.3,0000.0,0007.11,0003.91,0003.50
2023-06-07 14:48:00,SystemResetWarning,0830.0,5.01,000.00,030.0,026.8,000.0,038.6,031.1,26.7,0000.0,0006.92,0003.87,0003.49
2023-06-07 14:49:00,SystemResetWarning,0830.0,5.00,000.00,029.9,027.1,000.0,038.6,031.1,27.5,0000.0,0007.12,0003.87,0003.50
2023-06-07 14:50:00,SystemResetWarning,0830.0,4.99,000.00,029.9,027.4,000.0,038.6,031.2,27.4,0000.0,0007.30,0003.89,0003.51
2023-06-07 14:51:00,SystemResetWarning,0830.0,5.00,000.00,029.9,027.5,000.0,038.6,031.2,27.8,0000.0,0007.72,0003.89,0003.52
2023-06-07 14:52:00,SystemResetWarning,0830.0,5.00,000.00,029.9,027.7,000.0,038.5,031.3,27.3,0000.0,0007.93,0003.89,0003.53
2023-06-07 14:53:00,SystemResetWarning,0830.0,5.00,000.00,029.9,027.8,000.0,038.5,031.3,27.2,0000.0,0007.83,0003.91,0003.55
2023-06-07 14:54:00,SystemResetWarning,0830.0,5.01,000.00,029.9,027.9,000.0,038.5,031.3,27.6,0000.0,0007.78,0003.95,0003.57
2023-06-07 14:55:00,SystemResetWarning,0830.0,5.00,000.00,029.9,028.0,000.0,038.5,031.3,27.6,0000.0,0007.74,0003.96,0003.58
2023-06-07 14:56:00,SystemResetWarning,0830.0,5.00,000.00,029.9,028.1,000.0,038.5,031.3,27.7,0000.0,0007.76,0003.96,0003.59
2023-06-07 14:57:00,SystemResetWarning,0830.0,5.00,000.00,029.9,028.1,000.0,038.5,031.3,27.7,0000.0,0007.76,0003.97,0003.60
2023-06-07 14:58:00,SystemResetWarning,0830.0,5.00,000.00,029.9,028.2,000.0,038.5,031.3,28.1,0000.0,0007.65,0003.95,0003.61
2023-06-07 14:59:00,SystemResetWarning,0830.0,5.00,000.00,029.9,028.2,000.0,038.5,031.4,28.2,0000.0,0007.74,0003.99,0003.62
